Observations for Trim Market St
| Time | AQI | Temp °C | Hum % | Pres Pa | CO μg/m³ | H₂S μg/m³ | NO μg/m³ | NO₂ μg/m³ | O₃ μg/m³ | SO₂ μg/m³ | PM1 μg/m³ | PM2.5 μg/m³ | PM10 μg/m³ |
|---|---|---|---|---|---|---|---|---|---|---|---|---|---|
| Friday 10 July 2026 | |||||||||||||
| 12:17 | 1 | 35.9 | 33 | 66,487 | 0 | 0.7 | 0 | 11.36 | 17.55 | 0.41 | 1.43 | 4.81 | 4.98 |
| 12:16 | 1 | 36 | 33 | 66,493 | 0 | 8.15 | 0 | 11.85 | 18.43 | 0.09 | 2.14 | 4.81 | 5.29 |
| 12:15 | 1 | 36.1 | 33 | 66,503 | 1.07 | 19.38 | 0 | 34.83 | 3.23 | 0.44 | 2.14 | 4.28 | 4.71 |
| 12:14 | 1 | 36.2 | 32 | 66,519 | 0 | 2.93 | 0 | 43.54 | 0 | 0.91 | 2.14 | 5.37 | 5.82 |
| 12:13 | 1 | 36.3 | 32 | 66,509 | 0 | 0 | 0 | 23.12 | 0 | 0 | 1.43 | 4.84 | 4.97 |
| 12:12 | 1 | 36.4 | 32 | 66,523 | 0 | 0 | 0 | 36.48 | 0 | 0 | 2.14 | 4.29 | 4.97 |
| 12:11 | 1 | 36.5 | 32 | 66,541 | 0 | 0 | 0 | 18.74 | 0 | 0 | 2.85 | 5.91 | 6.5 |
| 12:10 | 1 | 36.6 | 32 | 66,529 | 0 | 0 | 0 | 29.42 | 4.79 | 0 | 2.85 | 5.91 | 6.67 |
| 12:09 | 1 | 36.6 | 32 | 66,541 | 0 | 0 | 0 | 8.31 | 0 | 2.79 | 2.14 | 5.36 | 5.9 |
| 12:08 | 1 | 36.6 | 32 | 66,560 | 0 | 0 | 0 | 12.41 | 0 | 2.63 | 0.71 | 4.28 | 4.71 |
| 12:07 | 1 | 36.6 | 32 | 66,548 | 0 | 0 | 0 | 16.02 | 21.47 | 1.23 | 2.14 | 4.83 | 5.31 |
| 12:03 | 1 | 36.3 | 33 | 66,521 | 0 | 0 | 0 | 0 | 13.26 | 1.77 | 2.14 | 4.8 | 4.99 |
| 12:02 | 1 | 36.2 | 33 | 66,527 | 0 | 0 | 0 | 0.76 | 17.37 | 1.8 | 1.43 | 4.26 | 4.69 |
| 11:59 | 1 | 36.2 | 33 | 66,535 | 0 | 0 | 0 | 18.1 | 2.5 | 2.5 | 4.28 | 6.43 | 6.68 |
| 11:56 | 1 | 36.4 | 33 | 66,465 | 0 | 0 | 0 | 3.03 | 27.66 | 1.89 | 2.85 | 5.35 | 5.88 |
| 11:49 | 1 | 36.1 | 33 | 66,485 | 0 | 0 | 0 | 3.68 | 18.93 | 1.37 | 2.85 | 5.88 | 6.46 |
| 11:48 | 1 | 36.2 | 33 | 66,485 | 0 | 0 | 0 | 7.87 | 14.56 | 1.27 | 2.85 | 4.8 | 5.28 |
| 11:47 | 1 | 36.2 | 33 | 66,487 | 0 | 0 | 0 | 0 | 14.4 | 1.54 | 2.85 | 5.34 | 5.87 |
| 11:46 | 1 | 36.2 | 33 | 66,491 | 0 | 0 | 0 | 4.83 | 25.37 | 0.99 | 1.43 | 4.79 | 5.27 |
| 11:45 | 1 | 36.2 | 33 | 66,495 | 0 | 0 | 0 | 0 | 22.69 | 1.52 | 1.43 | 5.33 | 5.86 |